Time,TemperatureF,DewpointF,PressureIn,WindDirection,WindDirectionDegrees,WindSpeedMPH,WindSpeedGustMPH,Humidity,HourlyPrecipIn,Conditions,Clouds,dailyrainin,SoftwareType,DateUTC
2013-06-08 00:11:00,60.6,58.0,29.72,ENE,67,0.0,-999.0,91,-99.99,,,0.00,Acu-Link.com,2013-06-08 05:11:00,
2013-06-08 00:27:00,60.4,58.1,29.72,ENE,67,0.0,-999.0,92,-99.99,,,0.00,Acu-Link.com,2013-06-08 05:27:00,
2013-06-08 00:42:00,59.9,57.3,29.72,ENE,67,0.0,-999.0,91,-99.99,,,0.00,Acu-Link.com,2013-06-08 05:42:00,
2013-06-08 00:57:00,59.7,57.1,29.73,ENE,67,0.0,-999.0,91,-99.99,,,0.00,Acu-Link.com,2013-06-08 05:57:00,
2013-06-08 01:12:00,59.7,57.4,29.73,ENE,67,0.0,-999.0,92,-99.99,,,0.00,Acu-Link.com,2013-06-08 06:12:00,
2013-06-08 01:27:00,59.7,57.4,29.73,ENE,67,0.0,-999.0,92,-99.99,,,0.00,Acu-Link.com,2013-06-08 06:27:00,
2013-06-08 01:42:00,59.4,57.1,29.74,ENE,67,0.0,-999.0,92,-99.99,,,0.00,Acu-Link.com,2013-06-08 06:42:00,
2013-06-08 01:57:00,59.2,56.9,29.73,ENE,67,0.0,-999.0,92,-99.99,,,0.00,Acu-Link.com,2013-06-08 06:57:00,
2013-06-08 02:12:00,58.8,56.2,29.74,ENE,67,0.0,-999.0,91,-99.99,,,0.00,Acu-Link.com,2013-06-08 07:12:00,
2013-06-08 02:27:00,59.0,56.7,29.74,ENE,67,0.0,-999.0,92,-99.99,,,0.00,Acu-Link.com,2013-06-08 07:27:00,
2013-06-08 02:43:00,58.6,56.3,29.74,ENE,67,0.0,-999.0,92,-99.99,,,0.00,Acu-Link.com,2013-06-08 07:43:00,
2013-06-08 02:58:00,58.5,56.2,29.73,ENE,67,0.0,-999.0,92,-99.99,,,0.00,Acu-Link.com,2013-06-08 07:58:00,
2013-06-08 03:13:00,58.3,56.0,29.73,ENE,67,0.0,-999.0,92,-99.99,,,0.00,Acu-Link.com,2013-06-08 08:13:00,
2013-06-08 03:28:00,57.7,55.4,29.74,ENE,67,0.0,-999.0,92,-99.99,,,0.00,Acu-Link.com,2013-06-08 08:28:00,
2013-06-08 03:43:00,57.7,55.4,29.74,ENE,67,0.0,-999.0,92,-99.99,,,0.00,Acu-Link.com,2013-06-08 08:43:00,
2013-06-08 03:58:00,57.4,54.8,29.75,ENE,67,0.0,-999.0,91,-99.99,,,0.00,Acu-Link.com,2013-06-08 08:58:00,
2013-06-08 04:13:00,58.3,56.0,29.75,ENE,67,0.0,-999.0,92,-99.99,,,0.00,Acu-Link.com,2013-06-08 09:13:00,
2013-06-08 04:28:00,57.6,55.0,29.76,ENE,67,0.0,-999.0,91,-99.99,,,0.00,Acu-Link.com,2013-06-08 09:28:00,
2013-06-08 04:43:00,57.0,54.4,29.75,ENE,67,0.0,-999.0,91,-99.99,,,0.00,Acu-Link.com,2013-06-08 09:43:00,
2013-06-08 04:59:00,57.0,54.4,29.77,ENE,67,0.0,-999.0,91,-99.99,,,0.00,Acu-Link.com,2013-06-08 09:59:00,
2013-06-08 05:14:00,57.4,55.1,29.76,ENE,67,0.0,-999.0,92,-99.99,,,0.00,Acu-Link.com,2013-06-08 10:14:00,
2013-06-08 05:29:00,57.2,54.9,29.76,ENE,67,0.0,-999.0,92,-99.99,,,0.00,Acu-Link.com,2013-06-08 10:29:00,
2013-06-08 05:44:00,56.5,54.2,29.77,ENE,67,0.0,-999.0,92,-99.99,,,0.00,Acu-Link.com,2013-06-08 10:44:00,
2013-06-08 05:59:00,56.7,54.1,29.77,ENE,67,0.0,-999.0,91,-99.99,,,0.00,Acu-Link.com,2013-06-08 10:59:00,
2013-06-08 06:14:00,56.8,54.2,29.77,ENE,67,0.0,-999.0,91,-99.99,,,0.00,Acu-Link.com,2013-06-08 11:14:00,
2013-06-08 06:29:00,57.0,54.1,29.78,ENE,67,0.0,-999.0,90,-99.99,,,0.00,Acu-Link.com,2013-06-08 11:29:00,
2013-06-08 06:44:00,59.7,57.4,29.78,ENE,67,0.0,-999.0,92,-99.99,,,0.00,Acu-Link.com,2013-06-08 11:44:00,
2013-06-08 06:59:00,61.9,60.2,29.78,ENE,67,0.0,-999.0,94,-99.99,,,0.00,Acu-Link.com,2013-06-08 11:59:00,
2013-06-08 07:15:00,65.8,62.1,29.79,ENE,67,0.0,-999.0,88,-99.99,,,0.00,Acu-Link.com,2013-06-08 12:15:00,
2013-06-08 07:30:00,69.4,64.0,29.79,ENE,67,0.0,-999.0,83,-99.99,,,0.00,Acu-Link.com,2013-06-08 12:30:00,
2013-06-08 07:45:00,71.8,63.4,29.79,NNE,22,0.0,-999.0,75,-99.99,,,0.00,Acu-Link.com,2013-06-08 12:45:00,
2013-06-08 08:00:00,75.4,64.5,29.80,NE,45,0.0,-999.0,69,-99.99,,,0.00,Acu-Link.com,2013-06-08 13:00:00,
2013-06-08 08:15:00,78.6,64.0,29.80,SE,135,0.0,-999.0,61,-99.99,,,0.00,Acu-Link.com,2013-06-08 13:15:00,
2013-06-08 08:30:00,80.4,64.2,29.80,ENE,67,0.0,-999.0,58,-99.99,,,0.00,Acu-Link.com,2013-06-08 13:30:00,
2013-06-08 08:45:00,81.5,63.7,29.80,SSE,157,0.0,-999.0,55,-99.99,,,0.00,Acu-Link.com,2013-06-08 13:45:00,
2013-06-08 09:00:00,84.4,64.8,29.81,ESE,112,0.0,-999.0,52,-99.99,,,0.00,Acu-Link.com,2013-06-08 14:00:00,
2013-06-08 09:15:00,79.3,63.2,29.82,ESE,112,2.2,-999.0,58,-99.99,,,0.00,Acu-Link.com,2013-06-08 14:15:00,
2013-06-08 09:30:00,79.3,64.2,29.82,ESE,112,1.7,-999.0,60,-99.99,,,0.00,Acu-Link.com,2013-06-08 14:30:00,
2013-06-08 09:46:00,81.3,62.5,29.82,NNE,22,0.0,-999.0,53,-99.99,,,0.00,Acu-Link.com,2013-06-08 14:46:00,
2013-06-08 10:01:00,81.5,61.0,29.81,ENE,67,0.0,-999.0,50,-99.99,,,0.00,Acu-Link.com,2013-06-08 15:01:00,
2013-06-08 10:16:00,81.5,59.3,29.82,ESE,112,2.2,-999.0,47,-99.99,,,0.00,Acu-Link.com,2013-06-08 15:16:00,
2013-06-08 10:31:00,83.8,58.9,29.82,NNE,22,2.2,-999.0,43,-99.99,,,0.00,Acu-Link.com,2013-06-08 15:31:00,
2013-06-08 10:46:00,84.2,59.2,29.82,SSE,157,2.7,-999.0,43,-99.99,,,0.00,Acu-Link.com,2013-06-08 15:46:00,
2013-06-08 11:01:00,79.5,57.5,29.82,ESE,112,0.0,-999.0,47,-99.99,,,0.00,Acu-Link.com,2013-06-08 16:01:00,
2013-06-08 11:17:00,84.0,56.3,29.82,West,270,2.2,-999.0,39,-99.99,,,0.00,Acu-Link.com,2013-06-08 16:17:00,
2013-06-08 11:32:00,83.3,55.0,29.81,NW,315,1.7,-999.0,38,-99.99,,,0.00,Acu-Link.com,2013-06-08 16:32:00,
2013-06-08 11:47:00,84.4,52.9,29.80,SW,225,0.0,-999.0,34,-99.99,,,0.00,Acu-Link.com,2013-06-08 16:47:00,
2013-06-08 12:02:00,84.9,57.9,29.80,ESE,112,1.7,-999.0,40,-99.99,,,0.00,Acu-Link.com,2013-06-08 17:02:00,
2013-06-08 12:17:00,84.9,55.7,29.80,SE,135,1.7,-999.0,37,-99.99,,,0.00,Acu-Link.com,2013-06-08 17:17:00,
2013-06-08 12:32:00,86.5,53.9,29.80,West,270,2.7,-999.0,33,-99.99,,,0.00,Acu-Link.com,2013-06-08 17:32:00,
2013-06-08 12:47:00,83.7,56.1,29.80,NE,45,0.0,-999.0,39,-99.99,,,0.00,Acu-Link.com,2013-06-08 17:47:00,
2013-06-08 13:02:00,82.9,55.4,29.80,NNW,337,3.2,-999.0,39,-99.99,,,0.00,Acu-Link.com,2013-06-08 18:02:00,
2013-06-08 13:17:00,82.8,56.0,29.79,NNE,22,1.1,-999.0,40,-99.99,,,0.00,Acu-Link.com,2013-06-08 18:17:00,
2013-06-08 13:33:00,84.2,57.2,29.80,NE,45,2.7,-999.0,40,-99.99,,,0.00,Acu-Link.com,2013-06-08 18:33:00,
2013-06-08 13:48:00,83.1,54.8,29.80,West,270,1.7,-999.0,38,-99.99,,,0.00,Acu-Link.com,2013-06-08 18:48:00,
2013-06-08 14:03:00,83.1,54.8,29.79,East,90,1.1,-999.0,38,-99.99,,,0.00,Acu-Link.com,2013-06-08 19:03:00,
2013-06-08 14:18:00,85.3,55.3,29.79,NNE,22,2.2,-999.0,36,-99.99,,,0.00,Acu-Link.com,2013-06-08 19:18:00,
2013-06-08 14:33:00,83.3,54.3,29.78,ESE,112,1.7,-999.0,37,-99.99,,,0.00,Acu-Link.com,2013-06-08 19:33:00,
2013-06-08 14:48:00,83.1,54.1,29.79,East,90,2.7,-999.0,37,-99.99,,,0.00,Acu-Link.com,2013-06-08 19:48:00,
2013-06-08 15:03:00,88.0,56.1,29.78,SSE,157,2.2,-999.0,34,-99.99,,,0.00,Acu-Link.com,2013-06-08 20:03:00,
2013-06-08 15:18:00,87.4,55.6,29.79,NE,45,2.2,-999.0,34,-99.99,,,0.00,Acu-Link.com,2013-06-08 20:18:00,
2013-06-08 15:33:00,84.0,54.1,29.78,West,270,2.2,-999.0,36,-99.99,,,0.00,Acu-Link.com,2013-06-08 20:33:00,
2013-06-08 15:49:00,86.5,56.3,29.78,East,90,0.0,-999.0,36,-99.99,,,0.00,Acu-Link.com,2013-06-08 20:49:00,
2013-06-08 16:04:00,84.6,56.2,29.78,East,90,1.1,-999.0,38,-99.99,,,0.00,Acu-Link.com,2013-06-08 21:04:00,
2013-06-08 16:19:00,85.5,55.5,29.77,SE,135,2.2,-999.0,36,-99.99,,,0.00,Acu-Link.com,2013-06-08 21:19:00,
2013-06-08 16:34:00,83.3,56.4,29.78,SW,225,3.2,-999.0,40,-99.99,,,0.00,Acu-Link.com,2013-06-08 21:34:00,
2013-06-08 16:49:00,82.9,56.8,29.77,ESE,112,3.2,-999.0,41,-99.99,,,0.00,Acu-Link.com,2013-06-08 21:49:00,
2013-06-08 17:04:00,83.8,56.2,29.76,SSW,202,3.2,-999.0,39,-99.99,,,0.00,Acu-Link.com,2013-06-08 22:04:00,
2013-06-08 17:19:00,82.9,58.1,29.77,NNE,22,2.7,-999.0,43,-99.99,,,0.00,Acu-Link.com,2013-06-08 22:19:00,
2013-06-08 17:34:00,82.4,57.0,29.75,South,180,2.2,-999.0,42,-99.99,,,0.00,Acu-Link.com,2013-06-08 22:34:00,
2013-06-08 17:49:00,86.4,56.3,29.76,SE,135,2.2,-999.0,36,-99.99,,,0.00,Acu-Link.com,2013-06-08 22:49:00,
2013-06-08 18:05:00,89.1,53.6,29.75,East,90,2.7,-999.0,30,-99.99,,,0.00,Acu-Link.com,2013-06-08 23:05:00,
2013-06-08 18:20:00,88.9,53.4,29.76,NNE,22,2.2,-999.0,30,-99.99,,,0.00,Acu-Link.com,2013-06-08 23:20:00,
2013-06-08 18:35:00,87.3,53.8,29.76,SSE,157,1.1,-999.0,32,-99.99,,,0.00,Acu-Link.com,2013-06-08 23:35:00,
2013-06-08 18:50:00,84.0,54.1,29.75,ESE,112,0.0,-999.0,36,-99.99,,,0.00,Acu-Link.com,2013-06-08 23:50:00,
2013-06-08 19:05:00,81.7,55.0,29.75,ESE,112,0.0,-999.0,40,-99.99,,,0.00,Acu-Link.com,2013-06-09 00:05:00,
2013-06-08 19:20:00,80.4,55.8,29.75,East,90,0.0,-999.0,43,-99.99,,,0.00,Acu-Link.com,2013-06-09 00:20:00,
2013-06-08 19:35:00,79.3,57.3,29.77,WNW,292,0.0,-999.0,47,-99.99,,,0.00,Acu-Link.com,2013-06-09 00:35:00,
2013-06-08 19:50:00,77.7,60.2,29.78,WNW,292,0.0,-999.0,55,-99.99,,,0.00,Acu-Link.com,2013-06-09 00:50:00,
2013-06-08 20:05:00,75.6,62.1,29.77,WNW,292,0.0,-999.0,63,-99.99,,,0.00,Acu-Link.com,2013-06-09 01:05:00,
2013-06-08 20:20:00,73.4,61.3,29.77,WNW,292,0.0,-999.0,66,-99.99,,,0.00,Acu-Link.com,2013-06-09 01:20:00,
2013-06-08 20:36:00,71.2,60.9,29.79,WNW,292,0.0,-999.0,70,-99.99,,,0.00,Acu-Link.com,2013-06-09 01:36:00,
2013-06-08 20:51:00,69.6,60.6,29.78,WNW,292,0.0,-999.0,73,-99.99,,,0.00,Acu-Link.com,2013-06-09 01:51:00,
2013-06-08 21:36:00,66.4,61.4,29.79,WNW,292,0.0,-999.0,84,-99.99,,,0.00,Acu-Link.com,2013-06-09 02:36:00,
2013-06-08 22:07:00,64.8,60.8,29.79,WNW,292,0.0,-999.0,87,-99.99,,,0.00,Acu-Link.com,2013-06-09 03:07:00,
2013-06-08 22:22:00,64.4,60.4,29.79,WNW,292,0.0,-999.0,87,-99.99,,,0.00,Acu-Link.com,2013-06-09 03:22:00,
2013-06-08 22:37:00,63.7,60.1,29.79,WNW,292,0.0,-999.0,88,-99.99,,,0.00,Acu-Link.com,2013-06-09 03:37:00,
2013-06-08 22:52:00,63.3,60.3,29.79,WNW,292,0.0,-999.0,90,-99.99,,,0.00,Acu-Link.com,2013-06-09 03:52:00,
2013-06-08 23:07:00,63.0,60.0,29.79,WNW,292,0.0,-999.0,90,-99.99,,,0.00,Acu-Link.com,2013-06-09 04:07:00,
2013-06-08 23:22:00,63.0,60.3,29.80,WNW,292,0.0,-999.0,91,-99.99,,,0.00,Acu-Link.com,2013-06-09 04:22:00,
2013-06-08 23:37:00,62.6,59.9,29.80,WNW,292,0.0,-999.0,91,-99.99,,,0.00,Acu-Link.com,2013-06-09 04:37:00,
2013-06-08 23:52:00,62.2,59.2,29.81,WNW,292,0.0,-999.0,90,-99.99,,,0.00,Acu-Link.com,2013-06-09 04:52:00,